COSMOS 2457 (733)

Last updated on Tue Dec 03 2024 00:03:11 GMT+0000 (Coordinated Universal Time)

1 36112U 09070B 24337.55900612 .00000008 00000+0 00000+0 0 9992 2 36112 64.6800 90.0370 0005537 156.9046 287.3542 2.13101040116460
UTC large
Height (km)
Speed (km/s)
/
Latitude / Longitude
Inclination (degrees)
Orbital Period (minutes)
Azimuth
Elevation
Range (km)
Doppler Factor

Next 0 passes for location: London (51.5072 / 0.1276)

Sorry there are no passes over London.